Preview of NWS' New Version of Forecast
This preview is not operational and should not be used for support decisions.

Regional Weather Roundup (RWR)

Issued by National Weather Service (NWS)

                            
000
ASUS46 KSEW 160310
RWRWA 

WASHINGTON REGIONAL WEATHER ROUNDUP
NATIONAL WEATHER SERVICE SEATTLE WA
800 PM PDT MON JUL 15 2019

NOTE:"FAIR" INDICATES FEW OR NO CLOUDS BELOW 12,000 FEET WITH NO 
SIGNIFICANT WEATHER AND/OR OBSTRUCTIONS TO VISIBILITY.

WAZ507-509-555>559-160400-
SEATTLE, TACOMA, EVERETT, AND VICINITY
  
CITY           SKY/WX    TMP DP  RH WIND       PRES   REMARKS
EVERETT        CLOUDY    67  55  65 SW3       30.07R                  
BOEING FIELD   MOCLDY    70  56  61 S5        30.04S                  
RENTON         CLOUDY    71  59  65 S5        30.04S                  
SEATAC AIRPORT MOCLDY    70  57  63 S7        30.05S                  
JBLM-MCCHORD   PTCLDY    69  65  86 SW5       30.06R                  
PUYALLUP       DRIZZLE   64  64 100 CALM      30.06S                  
BREMERTON      CLEAR     67  59  75 W6        30.05S                  
JBLM-FT LEWIS  CLOUDY    69  65  89 S5        30.05R                  
TACOMA NARROWS MOCLDY    65  58  78 S6        30.05S                  
$$
 
WAZ001-503-506-510-514-515-160400-
NORTH INTERIOR
  
CITY           SKY/WX    TMP DP  RH WIND       PRES   REMARKS
BELLINGHAM     CLEAR     68  55  63 S8        30.03S                  
FRIDAY HARBOR  CLOUDY    59  54  83 SW5       30.04S                  
EASTSOUND      CLEAR     68  57  68 S10       30.01S                  
PORT ANGELES   CLOUDY    64  56  75 W14       30.07R                  
EDIZ HOOK      CLOUDY    62  55  80 W9        30.05S                  
PORT TOWNSEND  MOCLDY    64  57  77 NW6       30.05R                  
NAS WHIDBEY    MOCLDY    64  54  69 CALM      30.09R                  
ARLINGTON      CLOUDY    71  57  61 SW7       30.05R                  
BURLINGTON     MOCLDY    70  57  64 VRB3      30.05R                  
$$
 
WAZ020-022-039-040-504-511-512-160400-
SOUTHWEST INTERIOR
  
CITY           SKY/WX    TMP DP  RH WIND       PRES   REMARKS
SHELTON        PTCLDY    70  59  68 S5        30.02S                  
OLYMPIA        CLOUDY    67  60  78 S6        30.06R                  
CHEHALIS       CLOUDY    66  66 100 CALM      30.07R                  
KELSO          CLOUDY    70  63  78 W5        30.05S                  
VANCOUVER      MOCLDY    73  58  59 W6        30.03S                  
SCAPPOOSE, OR  PTCLDY    70  62  76 N7        30.03S                  
PORTLAND, OR   MOCLDY    75  57  53 W8        30.03S                  
$$
 
WAZ021-516-517-160400-
WASHINGTON COAST
  
CITY           SKY/WX    TMP DP  RH WIND       PRES   REMARKS
FORKS          MOSUNNY   65  57  75 W6        30.06S                  
HOQUIAM        CLOUDY    67  59  75 W8        30.06S                  
ASTORIA, OR    PTCLDY    64  60  87 SW10      30.05S                  
$$
 
WAZ019-023-024-040-567>569-160400-
CASCADE MOUNTAINS AND COLUMBIA GORGE
  
CITY           SKY/WX    TMP DP  RH WIND       PRES   REMARKS
STAMPEDE PASS  CLOUDY    53  50  89 VRB6      30.12S                  
TROUTDALE, OR  CLOUDY    75  59  57 CALM      30.02F                  
HOOD RIVER, OR CLEAR     72  54  53 NW9G17    30.02R                  
THE DALLES, OR CLEAR     75  54  47 NW20      29.97F                  
$$

WAZ026-027-041>044-520-521-160400-
EAST SLOPES
  
CITY           SKY/WX    TMP DP  RH WIND       PRES   REMARKS
OMAK           MOCLDY    76  46  34 S8        29.93S                  
WENATCHEE      CLOUDY    73  54  51 W8        29.95R                  
ELLENSBURG     MOCLDY    68  52  56 NW20      30.00S                  
YAKIMA         CLOUDY    75  53  46 N10       29.98R                  
SUNNYSIDE ARPT PTCLDY    78  56  46 W6        29.94                   
YAKIMA TC      FAIR      73  51  46 NW7       29.97R                  
$$

WAZ028-034-035-160400-
COLUMBIA BASIN
  
CITY           SKY/WX    TMP DP  RH WIND       PRES   REMARKS
EPHRATA        CLEAR     76  48  37 S7        29.94S                  
MOSES LAKE     CLEAR     77  52  41 SE8       29.95S                  
PASCO          CLEAR     82  52  35 S10       29.93S                  
RICHLAND ARPT  CLEAR     82  55  39 SE5       29.92S                  
HERMISTON, OR  CLEAR     79  52  38 W10       29.94S                  
$$

WAZ036>038-160400-
NORTHEAST WASHINGTON
  
CITY           SKY/WX    TMP DP  RH WIND       PRES   REMARKS
SPOKANE GEIGER MOCLDY    70  44  39 W8        30.01R                  
SPOKANE FELTS  MOCLDY    70  50  49 SE6       30.00S                  
FAIRCHILD AFB  PTCLDY    68  45  44 SW6       30.01S                  
COEURDALENE,ID MOCLDY    67  53  61 CALM      30.03R                  
DEER PARK      CLOUDY    67  51  56 CALM      30.01S                  
$$

WAZ029>033-160400-
SOUTHEAST WASHINGTON
  
CITY           SKY/WX    TMP DP  RH WIND       PRES   REMARKS
PULLMAN        CLOUDY    67  53  61 CALM      30.04S                  
LEWISTON, ID   CLOUDY    69  56  62 SE5       29.99S                  
WALLA WALLA    CLEAR     76  52  43 SE7       29.98S                  
PENDLETON, OR  CLEAR     75  53  46 CALM      29.98S                  
$$